2014 WR362
ephemeris date magn radius delta ra dec elong phase
Today4 Sep 202633.93.553 AU4.296 AU13h03m-10°55'37.8°10.0°
2014 WR362 - 2026-09-04
astro.vanbuitenen.nl


 
-1 year
-1 month
-1 day
Now
+1 day
+1 month
+1 year

The interactive orbit chart above shows the body's path through the solar system and its position at the given date. Green and blue lines are shown perpendicular to the ecliptic plane: Green if the path is above the ecliptic plane, blue if it is below. (Left-click and drag to rotate the view; Right-click and drag to move the view; Use scroll wheel to zoom in our out.)

The orbital elements of 2014 WR362 are:

            e (Eccentricity)                : 0.5953672
            a (Semimajor axis)              : 2.2443348
            i (Inclination)                 : 9.10724
            Ω (Longitude of ascending node) : 239.55428
            ω (Argument of perihelion)      : 142.93314
            M (Mean anomaly)                : 173.18499
            Epoch                           : 2026 Jun 09

            L (Longitude of perihelion)     : 202.83640
            B (Latitude of perihelion)      : 5.47460
            P (Orbital period in years)     : 3.36            
        

The light curve chart below shows the estimated development of the minor planet's magnitude.


The all-sky chart below shows the path of the minor planet over the same period as the light curve. The current position is marked yellow.





The following chart shows the path of the minor planet in the next few days. The field of view is optimized for (~10x50) binoculars and finderscopes.




Ephemerides:
Date       Time       RA (2000)    DEC (2000)    delta   radius  elong  phase   PA    magn
2026-09-04 00:00 UT   13 03 06.4   -10 55 30     4.296    3.553   37.8   10.0   118   33.9 
2026-09-04 12:32 UT   13 03 37.6   -10 58 02     4.300    3.552   37.4    9.9   118   33.9 
2026-09-05 00:00 UT   13 04 06.2   -11 00 21     4.304    3.552   37.1    9.9   118   33.9 
2026-09-06 00:00 UT   13 05 06.2   -11 05 15     4.312    3.551   36.4    9.7   118   33.9 
2026-09-07 00:00 UT   13 06 06.6   -11 10 10     4.320    3.550   35.6    9.5   118   33.9 
2026-09-08 00:00 UT   13 07 07.2   -11 15 07     4.328    3.549   34.9    9.4   118   33.9 
2026-09-09 00:00 UT   13 08 08.2   -11 20 06     4.335    3.548   34.2    9.2   118   33.8 
2026-09-10 00:00 UT   13 09 09.4   -11 25 07     4.343    3.547   33.5    9.0   118   33.8 
2026-09-11 00:00 UT   13 10 10.9   -11 30 09     4.350    3.546   32.8    8.9   118   33.8 
2026-09-12 00:00 UT   13 11 12.7   -11 35 14     4.357    3.545   32.1    8.7   118   33.8 
2026-09-13 00:00 UT   13 12 14.7   -11 40 19     4.364    3.544   31.4    8.5   118   33.8 
2026-09-14 00:00 UT   13 13 17.1   -11 45 27     4.371    3.543   30.7    8.3   118   33.8 
2026-09-15 00:00 UT   13 14 19.6   -11 50 36     4.377    3.542   30.0    8.2   119   33.8 
2026-09-16 00:00 UT   13 15 22.5   -11 55 46     4.383    3.541   29.3    8.0   119   33.8 
2026-09-17 00:00 UT   13 16 25.6   -12 00 58     4.390    3.540   28.6    7.8   119   33.8 
2026-09-18 00:00 UT   13 17 28.9   -12 06 11     4.396    3.539   27.9    7.6   119   33.8 
2026-09-19 00:00 UT   13 18 32.5   -12 11 25     4.401    3.538   27.2    7.5   119   33.8 
2026-09-20 00:00 UT   13 19 36.3   -12 16 41     4.407    3.537   26.5    7.3   119   33.8 
2026-09-21 00:00 UT   13 20 40.4   -12 21 58     4.412    3.536   25.8    7.1   119   33.8 
2026-09-22 00:00 UT   13 21 44.7   -12 27 15     4.418    3.534   25.1    6.9   120   33.8 
2026-09-23 00:00 UT   13 22 49.2   -12 32 34     4.423    3.533   24.4    6.7   120   33.8 
2026-09-24 00:00 UT   13 23 54.0   -12 37 54     4.427    3.532   23.7    6.6   120   33.8 
2026-09-25 00:00 UT   13 24 58.9   -12 43 15     4.432    3.531   23.0    6.4   120   33.8 
2026-09-26 00:00 UT   13 26 04.1   -12 48 37     4.437    3.530   22.4    6.2   120   33.8 
2026-09-27 00:00 UT   13 27 09.5   -12 54 00     4.441    3.529   21.7    6.0   121   33.7 
2026-09-28 00:00 UT   13 28 15.1   -12 59 24     4.445    3.527   21.0    5.8   121   33.7 
2026-09-29 00:00 UT   13 29 20.9   -13 04 49     4.449    3.526   20.3    5.7   121   33.7 
2026-09-30 00:00 UT   13 30 27.0   -13 10 14     4.453    3.525   19.6    5.5   121   33.7 
2026-10-01 00:00 UT   13 31 33.2   -13 15 40     4.456    3.524   18.9    5.3   122   33.7 
2026-10-02 00:00 UT   13 32 39.6   -13 21 07     4.460    3.522   18.2    5.1   122   33.7 
2026-10-03 00:00 UT   13 33 46.3   -13 26 34     4.463    3.521   17.5    4.9   122   33.7 
2026-10-04 00:00 UT   13 34 53.1   -13 32 02     4.466    3.520   16.8    4.7   123   33.7 


    Terminology:
            
    delta:  distance between minor planet and earth in AU
    radius: distance between minor planet and sun in AU
    magn:   magnitude (brightness) estimate    
    ra:     right ascension in hours (24h = 360deg)
    dec:    declination in degrees
    elong:  elongation in degrees (angle sun-earth-minor planet)    
    phase:  phase angle in degrees (angle sun-minor planet-earth)        
    AU:     Astronomical Unit (mean distance between earth and sun: 149597870.7 km
    

Orbital elements provided by the MPC (Minor Planet Center).
Calculations by a modified version of AAPlus, a C# implementation of the AA+ project by PJ Naughter from the algorithms presented in the book "Astronomical Algorithms" by Jean Meeus.
NGC2000 dso catalog and star labels from VizieR as provided by the Strasbourg astronomical Data Center.
Tycho2 catalog from the ESO archive.